Location: Mannheim
(49.4880°N, 8.4650°E)
Time: 03:29:05
(UTC+01:00)

ISS - Visible Passes

Search period start: 22 January 2019 00:00
Search period end: 01 February 2019 00:00
Orbit: 404 x 410 km, 51.6° (Epoch: 22 January)

Date Brightness Start Highest point End Pass type
(mag) Time Alt. Az. Time Alt. Az. Time Alt. Az.
22 Jan -1.2 19:29:20 10° SSW 19:30:01 14° SSW 19:30:01 14° SSW visible
23 Jan -1.8 18:38:51 10° S 18:40:58 16° SE 18:41:05 16° SE visible
23 Jan -0.4 20:13:46 10° WSW 20:13:49 10° WSW 20:13:49 10° WSW visible
24 Jan -2.5 19:22:36 10° SW 19:24:48 34° SSW 19:24:48 34° SSW visible
25 Jan -2.7 18:31:35 10° SSW 18:34:31 30° SSE 18:35:43 23° ESE visible
25 Jan -0.8 20:07:35 10° WSW 20:08:26 17° W 20:08:26 17° W visible
26 Jan -3.7 19:16:13 10° WSW 19:19:16 73° SW 19:19:16 73° SW visible
27 Jan -3.5 18:24:55 10° SW 18:28:09 56° SSE 18:30:03 22° E visible
27 Jan -1.2 20:01:28 10° W 20:02:46 22° W 20:02:46 22° W visible
28 Jan -3.8 19:10:00 10° W 19:13:17 70° NNW 19:13:30 66° NNE visible
29 Jan -3.8 18:18:33 10° WSW 18:21:51 88° NNW 18:24:13 18° ENE visible
29 Jan -1.6 19:55:18 10° WNW 19:56:55 26° WNW 19:56:55 26° WNW visible
30 Jan -3.6 19:03:48 10° W 19:07:05 57° N 19:07:36 49° NE visible
31 Jan -3.6 18:12:18 10° W 18:15:36 64° N 18:18:17 14° ENE visible
31 Jan -2.1 19:49:02 10° WNW 19:50:59 32° WNW 19:50:59 32° WNW visible
